Regional Weather Roundup
Issued by NWS

Home | Current Version | Previous Version | Graphics & Text | Print | Product List | Glossary On
Versions: 1 2 3 4 5 6 7 8 9 10 11 12 13 14 15 16 17 18 19 20 21 22 23 24 25 26 27 28 29 30 31 32 33 34 35 36 37 38 39 40 41 42 43 44 45 46 47 48 49 50
000
ASUS43 KLMK 250710
RWRKY
NATIONAL WEATHER SERVICE LOUISVILLE KY
200 AM EST SAT NOV 25 2017

NOTE "FAIR" INDICATES FEW OR NO CLOUDS BELOW 12,000 FEET
WITH NO SIGNIFICANT WEATHER AND/OR OBSTRUCTIONS TO VISIBILITY.

KYZ001>023-026-027-061>063-070>075-250800-
WESTERN AND SOUTH CENTRAL KENTUCKY

CITY           SKY/WX    TMP DP  RH WIND       PRES   REMARKS
PADUCAH        CLOUDY    53  32  44 SW9       29.83S
HENDERSON      MOCLDY    53  34  48 SW16      29.79S
OWENSBORO      CLOUDY    51  33  50 SW10      29.81S
HOPKINSVILLE   CLOUDY    51  28  40 SW10      29.86F
BOWLING GREEN  CLOUDY    46  31  55 S7        29.87F
GLASGOW        PTCLDY    49  33  53 SW6       29.87S
$$

KYZ024-025-028>034-038-045-046-053-250800-
NORTH CENTRAL KENTUCKY

CITY           SKY/WX    TMP DP  RH WIND       PRES   REMARKS
LOUISVILLE/SDF CLOUDY    55  27  34 SW12G21   29.78F
LOUISVILLE/LOU CLOUDY    54  28  36 SW17G24   29.78F
FORT KNOX      CLOUDY    50  27  40 S12       29.79F
$$

KYZ035>037-039>044-047>052-055>060-089>105-250800-
NORTHEAST KENTUCKY

CITY           SKY/WX    TMP DP  RH WIND       PRES   REMARKS
LEXINGTON      PTCLDY    49  33  54 SW13      29.82R
COVINGTON      CLOUDY    50  29  44 SW13G23   29.73F
FRANKFORT      MOCLDY    51  30  44 SW12      29.78F
$$

KYZ054-064>069-076>088-106>120-250800-
SOUTHEAST KENTUCKY

CITY           SKY/WX    TMP DP  RH WIND       PRES   REMARKS
JACKSON        CLEAR     49  34  56 SW6       29.84S
LONDON         CLEAR     45  35  68 SW3       29.87S
SOMERSET       PTCLDY    43  36  75 CALM      29.89S
MIDDLESBORO    CLEAR     37  35  94 CALM      29.91F
MONTICELLO     SUNNY     37  33  85 W10       29.90R WCI  30
$$





USA.gov is the U.S. government's official web portal to all federal, state and local government web resources and services.